EW4427 Weather Reports


time (UTC)temp
C
wind
direction
speed
KPH
gust
KPH
rain 1hr
cm
rain 24hr
cm
rain mn
cm
humidity
%
barometer
mb
20260901211603 27 0 0.0 0.0 0.00 0.03 0.03 82 1013.5
20260901211045 27 0 0.0 0.0 0.00 0.03 0.03 83 1013.6
20260901210547 27 0 0.0 0.0 0.00 0.03 0.03 84 1013.6
20260901210100 27 0 0.0 0.0 0.00 0.03 0.03 84 1013.6
20260901205544 27 0 0.0 0.0 0.00 0.03 0.03 85 1013.5
20260901205049 27 0 0.0 0.0 0.00 0.03 0.03 85 1013.5
20260901204558 27 0 0.0 0.0 0.00 0.03 0.03 85 1013.7
20260901204044 27 0 0.0 0.0 0.00 0.03 0.03 85 1013.7
20260901203542 27 0 0.0 0.0 0.00 0.03 0.03 84 1013.6
20260901203057 27 0 0.0 0.0 0.00 0.03 0.03 84 1013.6
20260901202543 27 0 0.0 0.0 0.00 0.03 0.03 85 1013.8
20260901202043 27 0 0.0 0.0 0.00 0.03 0.03 83 1013.9
20260901201608 27 0 0.0 0.0 0.00 0.03 0.03 83 1014.0
20260901201044 27 0 0.0 0.0 0.00 0.03 0.03 84 1014.2
20260901200546 27 0 0.0 0.0 0.00 0.03 0.03 84 1014.6
20260901200103 28 0 0.0 0.0 0.00 0.03 0.03 85 1014.5
20260901195542 28 0 0.0 0.0 0.00 0.03 0.03 87 1014.2
20260901195044 28 0 0.0 0.0 0.00 0.03 0.03 87 1014.1
20260901194605 28 0 0.0 0.0 0.00 0.03 0.03 85 1013.8
20260901194043 28 0 0.0 0.0 0.00 0.03 0.03 85 1013.7
20260901193543 28 0 0.0 0.0 0.00 0.03 0.03 84 1013.9
20260901193059 28 0 0.0 0.0 0.00 0.03 0.03 84 1013.8
20260901192544 29 0 0.0 0.0 0.00 0.03 0.03 83 1013.7
20260901192045 29 0 0.0 0.0 0.00 0.03 0.03 83 1014.6
20260901191612 29 0 0.0 0.0 0.00 0.03 0.03 82 1014.4
20260901191042 29 0 0.0 0.0 0.00 0.03 0.03 82 1014.6
20260901190545 30 0 0.0 0.0 0.00 0.03 0.03 82 1014.6
20260901190059 30 0 0.0 0.0 0.00 0.03 0.03 81 1014.4
20260901185543 30 0 0.0 0.0 0.00 0.03 0.03 80 1014.2
20260901185042 30 0 0.0 0.0 0.00 0.03 0.03 81 1014.2
20260901184613 30 0 0.0 0.0 0.00 0.03 0.03 82 1014.0
20260901184041 30 0 0.0 0.0 0.03 0.03 0.03 82 1014.1
20260901183544 29 0 0.0 6.4 0.03 0.03 0.03 83 1014.2
20260901183059 29 0 0.0 8.0 0.03 0.03 0.03 84 1014.3
20260901182544 28 0 1.6 8.0 0.03 0.03 0.03 85 1014.2
20260901182043 28 0 0.0 0.0 0.03 0.03 0.03 87 1014.2
20260901181600 28 0 0.0 0.0 0.03 0.03 0.03 88 1014.1
20260901181044 28 0 0.0 0.0 0.03 0.03 0.03 88 1014.1
20260901180542 28 0 0.0 0.0 0.03 0.03 0.03 89 1014.3
20260901180108 27 0 0.0 0.0 0.03 0.03 0.03 89 1014.3
20260901175543 27 0 0.0 0.0 0.03 0.03 0.03 88 1014.2
20260901175044 27 0 0.0 0.0 0.03 0.03 0.03 89 1014.2
20260901174559 27 0 0.0 0.0 0.03 0.03 0.03 90 1014.3
20260901174043 27 0 0.0 0.0 0.00 0.00 0.00 89 1014.3
20260901173547 27 0 0.0 0.0 0.00 0.00 0.00 90 1014.4
20260901173104 27 0 0.0 0.0 0.00 0.00 0.00 91 1014.6
20260901172546 27 0 0.0 0.0 0.00 0.00 0.00 91 1014.5
20260901172047 27 0 0.0 0.0 0.00 0.00 0.00 92 1014.6
20260901171613 27 0 0.0 0.0 0.00 0.00 0.00 93 1014.7
20260901171046 27 0 0.0 0.0 0.00 0.00 0.00 93 1014.7
20260901170545 26 0 0.0 0.0 0.00 0.00 0.00 92 1014.5
20260901165545 26 0 0.0 0.0 0.00 0.00 0.00 92 1014.5
20260901165045 26 0 0.0 0.0 0.00 0.00 0.00 91 1014.5
20260901164608 26 0 0.0 0.0 0.00 0.00 0.00 91 1014.6
20260901164043 26 0 0.0 0.0 0.00 0.00 0.00 91 1014.5
20260901163546 26 0 0.0 0.0 0.00 0.00 0.00 90 1014.2
20260901163101 26 0 0.0 0.0 0.00 0.00 0.00 90 1014.4
20260901162546 26 0 0.0 0.0 0.00 0.00 0.00 90 1014.4
20260901162046 26 0 0.0 0.0 0.00 0.00 0.00 90 1014.5
20260901161615 26 0 0.0 0.0 0.00 0.00 0.00 89 1014.9
20260901161046 26 0 0.0 0.0 0.00 0.00 0.00 89 1014.6
20260901160545 26 0 0.0 11.3 0.00 0.00 0.00 89 1014.6
20260901160115 26 0 0.0 11.3 0.00 0.00 0.00 89 1014.2
20260901155547 26 193 4.8 11.3 0.00 0.00 0.00 88 1014.9
20260901155047 26 0 0.0 0.0 0.00 0.00 0.00 89 1015.4
20260901154559 26 0 0.0 0.0 0.00 0.00 0.00 89 1015.5
20260901154046 26 0 0.0 0.0 0.00 0.00 0.00 89 1015.1
20260901153546 26 0 0.0 0.0 0.00 0.00 0.00 90 1014.7
20260901153114 26 0 0.0 0.0 0.00 0.00 0.00 90 1014.7
20260901152547 26 0 0.0 0.0 0.00 0.00 0.00 91 1014.7
20260901152046 26 0 0.0 0.0 0.00 0.00 0.00 91 1014.9
20260901151605 26 0 0.0 0.0 0.00 0.00 0.00 92 1014.9
20260901151045 26 0 0.0 0.0 0.00 0.00 0.00 93 1014.9
20260901150543 26 0 0.0 0.0 0.00 0.00 0.00 93 1014.8
20260901150109 25 0 0.0 0.0 0.00 0.00 0.00 93 1014.6
20260901145546 25 0 0.0 0.0 0.00 0.00 0.00 94 1014.8
20260901145045 25 0 0.0 0.0 0.00 0.00 0.00 94 1014.7
20260901144601 25 0 0.0 0.0 0.00 0.00 0.00 95 1014.7
20260901144047 25 0 0.0 0.0 0.00 0.00 0.00 95 1014.6
20260901143543 25 0 0.0 0.0 0.00 0.00 0.00 95 1014.5
20260901143122 25 0 0.0 0.0 0.00 0.00 0.00 95 1014.5
20260901142544 25 0 0.0 0.0 0.00 0.00 0.00 95 1014.6
20260901142044 25 0 0.0 0.0 0.00 0.00 0.00 95 1014.5
20260901141601 24 0 0.0 0.0 0.00 0.00 0.00 95 1014.6
20260901141044 24 0 0.0 0.0 0.00 0.00 0.00 95 1014.7
20260901140543 24 0 0.0 0.0 0.00 0.00 0.00 95 1014.6
20260901135544 23 0 0.0 0.0 0.00 0.00 0.00 95 1014.6
20260901135048 23 0 0.0 0.0 0.00 0.00 0.00 95 1014.6
20260901134600 23 0 0.0 0.0 0.00 0.00 0.00 95 1014.6
20260901134045 23 0 0.0 0.0 0.00 0.00 0.00 95 1014.6
20260901133542 23 0 0.0 0.0 0.00 0.00 0.00 95 1014.6
20260901133057 23 0 0.0 0.0 0.00 0.00 0.00 95 1014.6
20260901132544 23 0 0.0 0.0 0.00 0.00 0.00 95 1014.6
20260901132044 23 0 0.0 0.0 0.00 0.00 0.00 94 1014.6
20260901131555 23 0 0.0 0.0 0.00 0.00 0.00 94 1014.7
20260901131043 23 0 0.0 0.0 0.00 0.00 0.00 94 1014.7
20260901130544 23 0 0.0 0.0 0.00 0.00 0.00 94 1014.6
20260901125543 23 0 0.0 0.0 0.00 0.00 0.00 94 1014.6
20260901125043 23 0 0.0 0.0 0.00 0.00 0.00 94 1014.6
20260901124603 22 0 0.0 0.0 0.00 0.00 0.00 94 1014.6
20260901124046 22 0 0.0 0.0 0.00 0.00 0.00 93 1014.7
20260901123546 22 0 0.0 0.0 0.00 0.00 0.00 93 1014.6
20260901123113 22 0 0.0 0.0 0.00 0.00 0.00 93 1014.7
20260901122543 22 0 0.0 0.0 0.00 0.00 0.00 93 1014.6
20260901122044 22 0 0.0 0.0 0.00 0.00 0.00 93 1014.5
20260901121601 22 0 0.0 0.0 0.00 0.00 0.00 93 1014.3
20260901121046 22 0 0.0 0.0 0.00 0.00 0.00 93 1014.3
20260901120544 22 0 0.0 0.0 0.00 0.00 0.00 93 1014.3
20260901120105 22 0 0.0 0.0 0.00 0.00 0.00 93 1014.1
20260901115546 22 0 0.0 0.0 0.00 0.00 0.00 93 1014.1
20260901115050 22 0 0.0 0.0 0.00 0.00 0.00 92 1014.0
20260901114606 22 0 0.0 0.0 0.00 0.00 0.00 91 1013.9
20260901114046 22 0 0.0 0.0 0.00 0.00 0.00 91 1013.9
20260901113546 22 0 0.0 0.0 0.00 0.00 0.00 91 1013.8
20260901113104 22 0 0.0 0.0 0.00 0.00 0.00 91 1013.8
20260901112543 23 0 0.0 0.0 0.00 0.00 0.00 91 1013.7
20260901112044 23 0 0.0 0.0 0.00 0.00 0.00 91 1013.7
20260901111608 23 0 0.0 0.0 0.00 0.00 0.00 92 1013.6
20260901111044 23 0 0.0 0.0 0.00 0.00 0.00 92 1013.4
20260901110546 23 0 0.0 0.0 0.00 0.00 0.00 92 1013.5
20260901110108 23 0 0.0 0.0 0.00 0.00 0.00 92 1013.5
20260901105544 23 0 0.0 0.0 0.00 0.00 0.00 92 1013.4
20260901105046 23 0 0.0 0.0 0.00 0.00 0.00 92 1013.3
20260901104604 23 0 0.0 0.0 0.00 0.00 0.00 92 1013.3
20260901104044 23 0 0.0 0.0 0.00 0.00 0.00 92 1013.4
20260901103542 23 0 0.0 0.0 0.00 0.00 0.00 92 1013.3
20260901103101 23 0 0.0 0.0 0.00 0.00 0.00 92 1013.4
20260901102546 23 0 0.0 0.0 0.00 0.00 0.00 92 1013.3
20260901102044 23 0 0.0 0.0 0.00 0.00 0.00 92 1013.5
20260901101602 23 0 0.0 0.0 0.00 0.00 0.00 92 1013.4
20260901101043 23 0 0.0 0.0 0.00 0.00 0.00 92 1013.5
20260901100543 23 0 0.0 0.0 0.00 0.00 0.00 92 1013.4
20260901100104 23 0 0.0 0.0 0.00 0.00 0.00 92 1013.5
20260901095543 23 0 0.0 0.0 0.00 0.00 0.00 92 1013.5
20260901095046 23 0 0.0 0.0 0.00 0.00 0.00 92 1013.4
20260901094601 23 0 0.0 0.0 0.00 0.00 0.00 92 1013.5
20260901094044 23 0 0.0 0.0 0.00 0.00 0.00 92 1013.4
20260901093546 23 0 0.0 0.0 0.00 0.00 0.00 92 1013.5
20260901093106 23 0 0.0 0.0 0.00 0.00 0.00 92 1013.5
20260901092542 23 0 0.0 0.0 0.00 0.00 0.00 92 1013.5
20260901092043 23 0 0.0 0.0 0.00 0.00 0.00 92 1013.4
20260901091604 23 0 0.0 0.0 0.00 0.00 0.00 92 1013.4
20260901091044 23 0 0.0 0.0 0.00 0.00 0.00 92 1013.4
20260901090545 23 0 0.0 0.0 0.00 0.00 0.00 92 1013.2
20260901090105 23 0 0.0 0.0 0.00 0.00 0.00 92 1013.4
20260901085546 23 0 0.0 0.0 0.00 0.00 0.00 92 1013.4
20260901085046 23 0 0.0 0.0 0.00 0.00 0.00 91 1013.5
20260901084605 23 0 0.0 0.0 0.00 0.00 0.00 91 1013.6
20260901084049 23 0 0.0 0.0 0.00 0.00 0.00 91 1013.4
20260901083546 23 0 0.0 0.0 0.00 0.00 0.00 90 1013.3
20260901083105 23 0 0.0 0.0 0.00 0.00 0.00 90 1013.1
20260901082545 23 0 0.0 0.0 0.00 0.00 0.00 89 1013.2
20260901082045 23 0 0.0 0.0 0.00 0.00 0.00 89 1013.3
20260901081603 23 0 0.0 0.0 0.00 0.00 0.00 89 1013.1
20260901081046 23 0 0.0 0.0 0.00 0.00 0.00 89 1013.3
20260901080546 23 0 0.0 0.0 0.00 0.00 0.00 89 1013.4
20260901080106 23 0 0.0 0.0 0.00 0.00 0.00 89 1013.2
20260901075546 23 0 0.0 0.0 0.00 0.00 0.00 89 1013.2
20260901075045 23 0 0.0 0.0 0.00 0.00 0.00 89 1013.3
20260901074559 23 0 0.0 0.0 0.00 0.00 0.00 90 1013.2
20260901074048 23 0 0.0 0.0 0.00 0.00 0.00 90 1013.3
20260901073546 23 0 0.0 0.0 0.00 0.00 0.00 90 1013.2
20260901073100 23 0 0.0 0.0 0.00 0.00 0.00 90 1013.1
20260901072546 23 0 0.0 0.0 0.00 0.00 0.00 90 1013.3
20260901072046 23 0 0.0 0.0 0.00 0.00 0.00 90 1013.1
20260901071558 23 0 0.0 0.0 0.00 0.00 0.00 90 1013.2
20260901071045 23 0 0.0 0.0 0.00 0.00 0.00 91 1013.1
20260901070546 23 0 0.0 0.0 0.00 0.00 0.00 91 1013.0
20260901070107 23 0 0.0 0.0 0.00 0.00 0.00 91 1013.1
20260901065546 23 0 0.0 0.0 0.00 0.00 0.00 91 1013.0
20260901065046 23 0 0.0 0.0 0.00 0.00 0.00 91 1013.1
20260901064602 23 0 0.0 0.0 0.00 0.00 0.00 91 1013.1
20260901064048 23 0 0.0 0.0 0.00 0.00 0.00 91 1013.0
20260901063545 23 0 0.0 0.0 0.00 0.00 0.00 91 1013.2
20260901063110 23 0 0.0 0.0 0.00 0.00 0.00 91 1013.1
20260901062545 23 0 0.0 0.0 0.00 0.00 0.00 91 1013.2
20260901062045 23 0 0.0 0.0 0.00 0.00 0.00 91 1013.3
20260901061624 23 0 0.0 0.0 0.00 0.00 0.00 91 1013.2
20260901061046 23 0 0.0 0.0 0.00 0.00 0.00 92 1013.1
20260901060545 23 0 0.0 0.0 0.00 0.00 0.00 92 1013.2
20260901060107 23 0 0.0 0.0 0.00 0.00 0.00 92 1013.3
20260901055546 23 0 0.0 0.0 0.00 0.00 0.00 92 1013.3
20260901055045 23 0 0.0 0.0 0.00 0.00 0.00 92 1013.4
20260901054559 23 0 0.0 0.0 0.00 0.00 0.00 91 1013.3
20260901054046 23 0 0.0 0.0 0.00 0.00 0.00 91 1013.3
20260901053547 23 0 0.0 0.0 0.00 0.00 0.00 91 1013.3
20260901053109 23 0 0.0 0.0 0.00 0.00 0.00 91 1013.4
20260901052546 23 0 0.0 0.0 0.00 0.00 0.00 91 1013.3
20260901052043 23 0 0.0 0.0 0.00 0.00 0.00 91 1013.3
20260901051601 23 0 0.0 0.0 0.00 0.00 0.00 91 1013.3
20260901051043 23 0 0.0 0.0 0.00 0.00 0.00 91 1013.4
20260901050546 23 0 0.0 0.0 0.00 0.00 0.00 91 1013.4
20260901050100 23 0 0.0 0.0 0.00 0.00 0.00 90 1013.4
20260901045618 23 0 0.0 0.0 0.00 0.00 0.00 90 1013.4
20260901045044 23 0 0.0 0.0 0.00 0.00 0.00 90 1013.4
20260901044606 23 0 0.0 0.0 0.00 0.00 0.00 90 1013.4
20260901044046 23 0 0.0 0.0 0.00 0.00 0.00 90 1013.3
20260901043546 23 0 0.0 0.0 0.00 0.00 0.00 90 1013.4
20260901043103 24 0 0.0 0.0 0.00 0.00 0.00 90 1013.4
20260901042543 24 0 0.0 0.0 0.00 0.00 0.00 89 1013.4
20260901042047 24 0 0.0 0.0 0.00 0.00 0.00 89 1013.3
20260901041608 24 0 0.0 0.0 0.00 0.00 0.00 89 1013.4
20260901041045 24 0 0.0 0.0 0.00 0.00 0.00 89 1013.4
20260901040547 24 0 0.0 0.0 0.00 0.00 0.00 88 1013.5
20260901040108 24 0 0.0 0.0 0.00 0.00 0.00 88 1013.5
20260901035547 24 0 0.0 0.0 0.00 0.00 0.00 88 1013.6
20260901035042 24 0 0.0 0.0 0.00 0.00 0.00 87 1013.5
20260901034602 24 0 0.0 0.0 0.00 0.00 0.00 87 1013.6
20260901034046 24 0 0.0 0.0 0.00 0.00 0.00 87 1013.6
20260901033546 25 0 0.0 0.0 0.00 0.00 0.00 87 1013.7
20260901033110 25 0 0.0 0.0 0.00 0.00 0.00 86 1013.7
20260901032548 25 0 0.0 0.0 0.00 0.00 0.00 86 1013.7
20260901032043 25 0 0.0 0.0 0.00 0.00 0.00 86 1013.8
20260901031613 25 0 0.0 0.0 0.00 0.00 0.00 86 1013.7
20260901031043 25 0 0.0 0.0 0.00 0.00 0.00 85 1013.7
20260901030547 25 0 0.0 0.0 0.00 0.00 0.00 86 1013.6
20260901030103 25 0 0.0 0.0 0.00 0.00 0.00 86 1013.7
20260901025548 25 0 0.0 0.0 0.00 0.00 0.00 86 1013.8
20260901025044 25 0 0.0 0.0 0.00 0.00 0.00 86 1013.7
20260901024607 25 0 0.0 0.0 0.00 0.00 0.00 86 1013.8
20260901024045 25 0 0.0 0.0 0.00 0.00 0.00 86 1013.8
20260901023543 25 0 0.0 0.0 0.00 0.00 0.00 86 1013.8
20260901023107 25 0 0.0 0.0 0.00 0.00 0.00 87 1013.7
20260901022543 25 0 0.0 0.0 0.00 0.00 0.00 87 1013.7
20260901022053 25 0 0.0 0.0 0.00 0.00 0.00 87 1013.7
20260901021628 25 0 0.0 0.0 0.00 0.00 0.00 87 1013.5
20260901021045 25 0 0.0 0.0 0.00 0.00 0.00 86 1013.5
20260901020547 25 0 0.0 3.2 0.00 0.00 0.00 86 1013.5
20260901020122 25 0 0.0 6.4 0.00 0.00 0.00 86 1013.5
20260901015547 26 0 1.6 6.4 0.00 0.00 0.00 87 1013.3
20260901015127 26 186 4.8 6.4 0.00 0.00 0.00 86 1013.3
20260901014607 26 186 3.2 6.4 0.00 0.00 0.00 86 1013.2
20260901014043 26 186 3.2 6.4 0.00 0.00 0.00 86 1013.1
20260901013549 26 186 1.6 6.4 0.00 0.00 0.00 86 1013.0
20260901013105 26 186 3.2 8.0 0.00 0.00 0.00 86 1013.0
20260901012542 26 186 4.8 8.0 0.00 0.00 0.00 86 1013.0
20260901012046 26 186 4.8 8.0 0.00 0.00 0.00 85 1012.9
20260901011601 26 186 4.8 8.0 0.00 0.00 0.00 85 1012.9
20260901011046 26 186 6.4 8.0 0.00 0.00 0.00 85 1013.0
20260901010545 26 188 4.8 8.0 0.00 0.00 0.00 85 1012.8
20260901010109 26 190 3.2 4.8 0.00 0.00 0.00 84 1012.8
20260901005546 26 189 0.0 8.0 0.00 0.00 0.00 84 1012.9
20260901005050 26 189 3.2 9.7 0.00 0.00 0.00 84 1012.8
20260901004611 26 188 6.4 9.7 0.00 0.00 0.00 84 1012.8
20260901004046 26 182 3.2 6.4 0.00 0.00 0.00 84 1012.6
20260901003545 26 0 0.0 0.0 0.00 0.00 0.00 82 1012.8
20260901003103 27 0 0.0 0.0 0.00 0.00 0.00 82 1012.9
20260901002543 27 0 0.0 3.2 0.00 0.00 0.00 82 1012.9
20260901002048 27 0 0.0 3.2 0.00 0.00 0.00 82 1012.7
20260901001600 27 0 0.0 1.6 0.00 0.00 0.00 81 1012.6
20260901001046 27 0 0.0 1.6 0.00 0.00 0.00 80 1012.6
20260901000546 27 0 0.0 1.6 0.00 0.00 0.00 80 1012.5
20260901000113 27 0 0.0 1.6 0.00 0.00 0.00 80 1012.6
20260831235543 27 0 0.0 0.0 0.00 0.00 0.00 80 1012.4
20260831235043 27 0 0.0 1.6 0.00 0.00 0.00 80 1012.5
20260831234606 27 0 0.0 4.8 0.00 0.00 0.00 80 1012.4
20260831234046 27 0 0.0 4.8 0.00 0.00 0.00 80 1012.3
20260831233544 27 188 1.6 4.8 0.00 0.00 0.00 80 1012.2
20260831233100 27 185 3.2 6.4 0.00 0.00 0.00 80 1012.2
20260831232547 27 199 3.2 6.4 0.00 0.00 0.00 79 1012.3
20260831232047 27 182 1.6 8.0 0.00 0.00 0.00 79 1012.4
20260831231558 27 196 3.2 8.0 0.00 0.00 0.00 79 1012.3
20260831231049 27 186 3.2 6.4 0.00 0.00 0.00 79 1012.2
20260831230547 27 186 3.2 6.4 0.00 0.00 0.00 78 1012.2
20260831230106 27 188 1.6 6.4 0.00 0.00 0.00 78 1012.4
20260831225545 27 187 1.6 8.0 0.00 0.00 0.00 78 1012.4
20260831225046 27 192 3.2 8.0 0.00 0.00 0.00 78 1012.3
20260831224601 27 174 3.2 11.3 0.00 0.00 0.00 78 1012.1
20260831224043 27 192 3.2 12.9 0.00 0.00 0.00 78 1012.1
20260831223544 27 185 4.8 12.9 0.00 0.00 0.00 77 1011.9
20260831223100 27 189 3.2 9.7 0.00 0.00 0.00 77 1012.0
20260831222544 27 196 4.8 11.3 0.00 0.00 0.00 77 1012.0
20260831222043 27 223 1.6 11.3 0.00 0.00 0.00 78 1012.0
20260831221606 27 194 1.6 9.7 0.00 0.00 0.00 78 1012.1
20260831221047 27 195 3.2 11.3 0.00 0.00 0.00 78 1012.2
20260831220543 27 200 3.2 11.3 0.00 0.00 0.00 79 1012.1
20260831220104 27 190 3.2 20.9 0.00 0.00 0.00 79 1012.1
20260831215544 27 184 4.8 20.9 0.00 0.00 0.00 79 1012.2
20260831215045 27 179 6.4 16.1 0.00 0.00 0.00 79 1012.1
20260831214601 27 179 6.4 16.1 0.00 0.00 0.00 80 1012.2
20260831214044 27 190 8.0 17.7 0.00 0.00 0.00 80 1012.3
20260831213543 27 194 8.0 17.7 0.00 0.00 0.00 79 1012.3
20260831213059 27 181 4.8 12.9 0.00 0.00 0.00 79 1012.3
20260831212543 27 184 3.2 9.7 0.00 0.00 0.00 78 1012.4
20260831212043 27 182 3.2 8.0 0.00 0.00 0.00 79 1012.5